[[{"header":{"parameterUnit":"m.s-1","parameterCategory":1,"la1":30.2991,"la2":30.254,"lo1":-89.0895,"lo2":-89.0444,"dy":0.0017,"dx":0.0017,"nx":28,"ny":28,"refTime":"2024-05-13T09:00:00:Z","depth":0,"parameterNumber":2,"parameterNumberName":"U-component_of_WINDS"},"data":[0,0,0,0,0,0,0,0,0,0,0,0,0,0,0,0,0,0,0,0,0,0,0,0,0,0,0,0,0,0,0,0,0,0,0,0,0,0,0,0,0,0,0,0,0,0,0,0,0,0,0,0,0,0,0,0,0,0,-2.5126,-2.5125,0,-2.5068,-2.5067,-2.5067,-2.4991,-2.499,-2.4988,-2.4987,-2.4926,-2.4925,-2.4925,0,0,0,0,0,0,0,0,0,0,0,0,0,-2.5169,-2.5168,-2.5126,-2.5125,-2.5125,-2.5068,-2.5067,-2.5067,-2.4991,-2.499,-2.4988,-2.4987,-2.4926,-2.4925,-2.4925,0,0,0,0,0,0,0,0,0,0,0,0,0,-2.5134,-2.5168,-2.5126,-2.508,-2.5075,-2.5068,-2.5067,-2.5066,-2.4991,-2.4989,-2.4988,-2.4986,-2.4926,-2.4925,-2.4925,-2.4957,0,0,-2.4923,-2.4922,0,0,0,0,0,0,0,0,-2.5136,-2.5133,-2.5088,-2.5083,-2.5078,-2.5035,-2.506,-2.503,-2.4992,-2.5023,-2.4987,-2.4985,-2.4963,-2.496,-2.4953,-2.4955,-2.4952,-2.4922,-2.4922,-2.4922,-2.4922,0,0,0,0,0,0,0,-2.5139,-2.5135,-2.5103,-2.5087,-2.5081,-2.5061,-2.5055,-2.5054,-2.5004,-2.502,-2.5015,-2.5009,-2.496,-2.4954,-2.4951,-2.4951,-2.4922,-2.4922,-2.4921,-2.4921,-2.4974,-2.4976,0,0,0,0,0,0,-2.5148,-2.5137,-2.5105,-2.5101,-2.5103,-2.5062,-2.5054,-2.5051,-2.5004,-2.4995,-2.5011,-2.5006,-2.4956,-2.4952,-2.4948,-2.4981,-2.4922,-2.4921,-2.4921,-2.4972,-2.4974,-2.4976,0,0,0,0,0,0,-2.515,-2.5146,-2.5107,-2.5118,-2.5111,-2.5063,-2.506,-2.505,-2.5043,-2.4997,-2.4987,-2.5013,-2.4954,-2.4949,-2.4955,-2.4978,-2.4921,-2.492,-2.497,-2.4973,-2.4975,-2.505,0,0,0,0,0,0,-2.5151,-2.5147,-2.516,-2.5119,-2.5111,-2.5117,-2.5061,-2.5051,-2.5043,-2.5036,-2.4996,-2.4988,-2.4952,-2.4957,-2.4955,-2.4976,-2.4919,-2.4967,-2.4971,-2.4974,-2.5045,-2.5055,-2.5063,0,0,0,0,0,-2.5153,-2.5183,-2.5161,-2.5157,-2.5126,-2.5118,-2.5114,-2.5072,-2.5045,-2.5056,-2.5026,-2.4989,-2.4977,-2.4958,-2.4955,-2.4977,-2.4966,-2.497,-2.4974,-2.5041,-2.5053,-2.5063,0,0,0,0,0,0,-2.5228,-2.5177,-2.5152,-2.517,-2.5149,-2.5105,-2.5119,-2.5086,-2.5072,-2.5066,-2.5015,-2.5007,-2.5018,-2.4998,-2.4979,-2.5004,-2.4965,-2.4969,-2.5017,-2.5028,-2.5037,-2.5041,-2.4919,0,0,0,0,0,-2.5247,-2.5246,-2.5201,-2.5221,-2.5212,-2.5167,-2.5162,-2.5132,-2.5108,-2.5099,-2.5069,-2.5046,-2.5036,-2.5031,-2.502,-2.5042,-2.5031,-2.5055,-2.5064,-2.5072,-2.5075,-2.5082,-2.5092,-2.499,-2.499,-2.499,0,0,-2.5286,-2.5257,-2.526,-2.5235,-2.5215,-2.5214,-2.516,-2.5161,-2.5159,-2.5098,-2.5102,-2.5079,-2.505,-2.5064,-2.5068,-2.5047,-2.5101,-2.5077,-2.5083,-2.5083,-2.5088,-2.5097,-2.5106,-2.4993,-2.4992,-2.4992,0,0,-2.5355,-2.5334,-2.5348,-2.5329,-2.53,-2.527,-2.5273,-2.5234,-2.5217,-2.522,-2.5173,-2.517,-2.5155,-2.5135,-2.5124,-2.5184,-2.5149,-2.5182,-2.5229,-2.5236,-2.5244,-2.5251,-2.527,-2.5278,-2.5186,-2.5186,-2.5186,0,-2.5406,-2.5403,-2.5359,-2.5362,-2.5352,-2.5297,-2.531,-2.5293,-2.5262,-2.5255,-2.5233,-2.5212,-2.5189,-2.5195,-2.521,-2.5203,-2.5203,-2.5186,-2.5247,-2.5253,-2.5259,-2.5277,-2.5284,-2.519,-2.5189,-2.5189,-2.5189,0,-2.5466,-2.5465,-2.5479,-2.545,-2.5441,-2.545,-2.5405,-2.5402,-2.5372,-2.5344,-2.5347,-2.5317,-2.5298,-2.5297,-2.5269,-2.5299,-2.5287,-2.5257,-2.5216,-2.5273,-2.5289,-2.5296,-2.5196,-2.5194,-2.5193,-2.5192,0,0,-2.5581,-2.5527,-2.5533,-2.5518,-2.5482,-2.5479,-2.5484,-2.5465,-2.5462,-2.5442,-2.5443,-2.5431,-2.5402,-2.5389,-2.5357,-2.5364,-2.5411,-2.5332,-2.5331,-2.5346,-2.544,-2.5462,-2.5471,-2.5388,-2.5389,-2.539,-2.5442,0,-2.5642,-2.5648,-2.5608,-2.5624,-2.5621,-2.5568,-2.5572,-2.5549,-2.5523,-2.5515,-2.5485,-2.5477,-2.544,-2.5431,-2.5436,-2.5405,-2.5429,-2.54,-2.5386,-2.5386,-2.5394,-2.548,-2.5504,-2.5554,-2.5448,-2.5449,-2.545,0,-2.5714,-2.5698,-2.5714,-2.5674,-2.5671,-2.5676,-2.5655,-2.5649,-2.5621,-2.5601,-2.5585,-2.5549,-2.5548,-2.5511,-2.5508,-2.549,-2.5482,-2.5465,-2.5466,-2.5462,-2.5421,-2.5476,-2.557,-2.5577,-2.5459,-2.5459,-2.5458,0,-2.5794,-2.5776,-2.5783,-2.5772,-2.5727,-2.5731,-2.5712,-2.5682,-2.5673,-2.5654,-2.5647,-2.5629,-2.5618,-2.5604,-2.5562,-2.5539,-2.5564,-2.5523,-2.5545,-2.5546,-2.5552,-2.5552,-2.5644,-2.555,-2.555,-2.5549,-2.5549,0,-2.5866,-2.5877,-2.5818,-2.5822,-2.5832,-2.5786,-2.5797,-2.5772,-2.5746,-2.5743,-2.5697,-2.5694,-2.564,-2.5631,-2.5599,-2.56,-2.5596,-2.5579,-2.557,-2.5582,-2.5584,-2.5575,-2.557,-2.5551,-2.5551,-2.5551,-2.555,0,-2.5957,-2.5918,-2.5921,-2.5878,-2.5868,-2.5877,-2.5839,-2.584,-2.581,-2.5807,-2.5803,-2.5756,-2.5743,-2.5701,-2.5677,-2.5655,-2.5665,-2.5649,-2.5675,-2.5669,-2.5693,-2.569,-2.5781,-2.5789,-2.5692,-2.5693,-2.5694,0,-2.6004,-2.6012,-2.5969,-2.5964,-2.5948,-2.594,-2.593,-2.5884,-2.5876,-2.5843,-2.5847,-2.5831,-2.5815,-2.5796,-2.5758,-2.5739,-2.5721,-2.5754,-2.5718,-2.5729,-2.5719,-2.5718,-2.5718,-2.5762,-2.5763,-2.5764,-2.5765,0,-2.6092,-2.6073,-2.6061,-2.6042,-2.6032,-2.6015,-2.5995,-2.5993,-2.5941,-2.5934,-2.592,-2.5908,-2.5883,-2.5866,-2.584,-2.5818,-2.5782,-2.5777,-2.578,-2.5792,-2.5806,-2.5797,-2.5695,-2.5774,-2.5773,-2.5773,-2.5772,-2.5772,-2.6162,-2.6165,-2.6136,-2.6123,-2.6104,-2.6086,-2.6084,-2.6054,-2.6042,-2.6019,-2.5992,-2.5981,-2.5949,-2.5912,-2.5892,-2.5881,-2.5862,-2.5868,-2.5869,-2.5871,-2.5876,-2.5809,-2.5877,-2.5876,-2.5876,-2.5876,-2.5876,0,-2.6246,-2.6224,-2.6214,-2.6187,-2.6177,-2.6145,-2.6121,-2.6114,-2.6105,-2.608,-2.6065,-2.6048,-2.603,-2.5992,-2.597,-2.5968,-2.5951,-2.5964,-2.5963,-2.5958,-2.5896,-2.5894,-2.5978,-2.5978,-2.5978,-2.5978,-2.5978,-2.5978,-2.6289,-2.6292,-2.6268,-2.6261,-2.6238,-2.6227,-2.6216,-2.6198,-2.6177,-2.6161,-2.6146,-2.6122,-2.609,-2.6065,-2.6047,-2.6035,-2.6029,-2.6047,-2.603,-2.5973,-2.5963,-2.5953,-2.5951,-2.6047,-2.6047,-2.6093,-2.6093,-2.6094]},{"header":{"parameterUnit":"m.s-1","parameterCategory":1,"la1":30.2991,"la2":30.254,"lo1":-89.0895,"lo2":-89.0444,"dy":0.0017,"dx":0.0017,"nx":28,"ny":28,"refTime":"2024-05-13T09:00:00:Z","depth":0,"parameterNumber":3,"parameterNumberName":"V-component_of_WINDS"},"data":[0,0,0,0,0,0,0,0,0,0,0,0,0,0,0,0,0,0,0,0,0,0,0,0,0,0,0,0,0,0,0,0,0,0,0,0,0,0,0,0,0,0,0,0,0,0,0,0,0,0,0,0,0,0,0,0,0,0,2.253,2.2533,0,2.2799,2.2802,2.2805,2.2853,2.2851,2.2849,2.2847,2.3122,2.3131,2.3141,0,0,0,0,0,0,0,0,0,0,0,0,0,2.2055,2.2064,2.253,2.2533,2.2537,2.2799,2.2803,2.2806,2.2854,2.2851,2.2848,2.2846,2.3119,2.313,2.3141,0,0,0,0,0,0,0,0,0,0,0,0,0,2.2287,2.2067,2.2529,2.2592,2.26,2.2798,2.2803,2.2807,2.2854,2.2851,2.2847,2.2844,2.3115,2.3129,2.3143,2.3297,0,0,2.3186,2.3192,0,0,0,0,0,0,0,0,2.2274,2.2304,2.2579,2.2588,2.2598,2.2789,2.2736,2.2972,2.2855,2.2758,2.2846,2.2843,2.3014,2.3036,2.3094,2.331,2.3322,2.3187,2.3196,2.3202,2.3206,0,0,0,0,0,0,0,2.2257,2.2293,2.2636,2.2583,2.2594,2.2606,2.2635,2.2781,2.2901,2.2766,2.277,2.2801,2.3018,2.308,2.3101,2.3326,2.3187,2.32,2.3208,2.3214,2.3682,2.3686,0,0,0,0,0,0,2.223,2.2279,2.2628,2.2645,2.2424,2.2617,2.265,2.2731,2.29,2.2922,2.2804,2.2802,2.3058,2.3084,2.3111,2.3303,2.3202,2.3215,2.3223,2.3678,2.3683,2.3687,0,0,0,0,0,0,2.222,2.2261,2.2617,2.2463,2.2509,2.2629,2.272,2.2738,2.28,2.2929,2.295,2.2845,2.3056,2.3091,2.3251,2.3313,2.3222,2.3234,2.3673,2.3679,2.3685,2.3688,0,0,0,0,0,0,2.2206,2.2257,2.2317,2.2464,2.2517,2.2753,2.2724,2.2746,2.2825,2.2825,2.2973,2.2995,2.3056,2.3229,2.3265,2.3331,2.3246,2.3668,2.3676,2.3683,2.3683,2.3693,2.3702,0,0,0,0,0,2.2189,2.2308,2.232,2.2362,2.2595,2.2756,2.2787,2.2856,2.2829,2.2891,2.2973,2.299,2.33,2.3245,2.3285,2.3357,2.3665,2.3674,2.3682,2.3679,2.3691,2.3702,0,0,0,0,0,0,2.2166,2.2328,2.2344,2.2514,2.2621,2.2764,2.2844,2.2867,2.2984,2.298,2.306,2.3093,2.3248,2.3318,2.3254,2.3515,2.348,2.3498,2.3464,2.3477,2.3486,2.3467,2.3257,0,0,0,0,0,2.218,2.2298,2.2433,2.257,2.2623,2.2724,2.2796,2.284,2.2954,2.3,2.3094,2.3204,2.3326,2.3405,2.3525,2.3692,2.3725,2.3761,2.3771,2.3778,2.3793,2.3887,2.3904,2.3716,2.3716,2.3716,0,0,2.2212,2.2315,2.2384,2.2568,2.2656,2.2775,2.2762,2.2889,2.2978,2.3019,2.3176,2.3248,2.3376,2.354,2.3617,2.3604,2.3852,2.379,2.3794,2.3806,2.3897,2.3915,2.3931,2.3722,2.3721,2.372,0,0,2.2331,2.242,2.2544,2.2632,2.2766,2.2832,2.2861,2.3001,2.3051,2.3209,2.3242,2.3349,2.3558,2.3648,2.372,2.3871,2.389,2.3907,2.3958,2.4049,2.4064,2.4077,2.4131,2.415,2.3921,2.3921,2.3921,0,2.2353,2.2535,2.2605,2.2731,2.281,2.2851,2.2977,2.3059,2.3225,2.3278,2.326,2.3523,2.3612,2.3798,2.3834,2.3891,2.3927,2.3892,2.4056,2.407,2.4084,2.4136,2.4156,2.3922,2.3922,2.3922,2.3922,0,2.2556,2.2682,2.2765,2.2924,2.3012,2.3137,2.3225,2.3306,2.3341,2.3409,2.3569,2.3677,2.3819,2.3866,2.3901,2.4056,2.4044,2.4039,2.4007,2.4102,2.4153,2.4173,2.3924,2.3923,2.3923,2.3923,0,0,2.2671,2.2865,2.2895,2.2967,2.3116,2.3214,2.3339,2.3478,2.3546,2.3658,2.3766,2.3941,2.3937,2.402,2.4066,2.4145,2.4257,2.4131,2.4135,2.4152,2.4435,2.4438,2.446,2.427,2.4274,2.4277,2.4424,0,2.2809,2.3036,2.3101,2.3292,2.3408,2.3448,2.3558,2.3661,2.3727,2.3834,2.3907,2.403,2.4016,2.4066,2.4146,2.4226,2.4315,2.4216,2.4372,2.4376,2.434,2.4487,2.4491,2.4625,2.4444,2.4448,2.445,0,2.3,2.3115,2.3318,2.3451,2.3502,2.36,2.3732,2.3834,2.3951,2.3993,2.4084,2.4123,2.4255,2.4213,2.4396,2.4328,2.4394,2.4443,2.445,2.4469,2.442,2.4511,2.4669,2.469,2.4482,2.448,2.4477,0,2.3065,2.327,2.3418,2.3478,2.3637,2.3705,2.3774,2.3887,2.3966,2.408,2.4132,2.426,2.4331,2.4429,2.45,2.4463,2.4678,2.4642,2.4717,2.4715,2.4762,2.4759,2.4935,2.4802,2.4802,2.4801,2.4801,0,2.3213,2.3336,2.3449,2.354,2.3678,2.3751,2.3886,2.3956,2.4057,2.4162,2.4203,2.4301,2.4388,2.4497,2.4554,2.4697,2.4728,2.4766,2.478,2.4764,2.4759,2.4811,2.4804,2.4807,2.4806,2.4805,2.4804,0,2.331,2.3391,2.3555,2.369,2.3727,2.3823,2.394,2.4029,2.4095,2.4227,2.4263,2.4367,2.4497,2.4577,2.4743,2.4781,2.4939,2.4948,2.49,2.4907,2.4978,2.497,2.5195,2.5228,2.5071,2.5072,2.5073,0,2.34,2.3496,2.3641,2.3714,2.3784,2.3902,2.3982,2.4056,2.4138,2.4277,2.4349,2.4482,2.4593,2.4799,2.4889,2.5016,2.503,2.5099,2.5049,2.5029,2.5032,2.5027,2.5037,2.5108,2.511,2.5111,2.5112,0,2.3552,2.3587,2.3701,2.3829,2.3923,2.4028,2.4132,2.4189,2.428,2.437,2.4504,2.4589,2.4757,2.4889,2.5023,2.5093,2.5119,2.5126,2.5151,2.5136,2.5105,2.5124,2.4924,2.5122,2.5121,2.512,2.5119,2.5119,2.365,2.3736,2.3852,2.3978,2.4063,2.4159,2.4249,2.4326,2.4439,2.4582,2.4618,2.4758,2.4871,2.5053,2.5126,2.5236,2.5226,2.5261,2.5271,2.5279,2.5281,2.5085,2.5261,2.5261,2.5261,2.526,2.526,0,2.3806,2.3881,2.3996,2.4139,2.4238,2.4251,2.4366,2.4447,2.457,2.4673,2.478,2.4933,2.506,2.5159,2.5289,2.5359,2.5373,2.539,2.5387,2.5403,2.5282,2.5248,2.5376,2.5376,2.5376,2.5376,2.5376,2.5376,2.3898,2.4045,2.4093,2.4282,2.4357,2.4494,2.4559,2.4647,2.473,2.4898,2.5004,2.5067,2.5169,2.5306,2.5423,2.5449,2.5496,2.5511,2.5539,2.5424,2.5412,2.54,2.5369,2.552,2.552,2.5652,2.5653,2.5654]}]]